Preview of NWS' New Version of Forecast
This preview is not operational and should not be used for support decisions.

Regional Weather Roundup (RWR)

Issued by National Weather Service (NWS)

                            
000
ASUS43 KTOP 220808
RWRKS 

WEATHER ROUNDUP FOR KANSAS
NATIONAL WEATHER SERVICE GOODLAND KS
300 AM CDT MON APR 22 2019

NOTE:  "FAIR" INDICATES FEW OR NO CLOUDS BELOW 12,000 FEET WITH NO
SIGNIFICANT WEATHER AND/OR OBSTRUCTIONS TO VISIBILITY.

KSZ001>006-013>018-027>032-041>047-220900-
NORTHWEST KANSAS
  
CITY           SKY/WX    TMP DP  RH WIND       PRES   REMARKS
GOODLAND       CLOUDY    49  46  90 NW20      30.02R                  
HAYS           PTCLDY    59  50  72 NW16      29.88R                  
HILL CITY      CLOUDY    55  49  80 NW12      29.92R                  
RUSSELL        PTCLDY    59  51  75 NW15      29.84R                  
$$

KSZ061>065-074>080-084>089-220900-
SOUTHWEST KANSAS
  
CITY           SKY/WX    TMP DP  RH WIND       PRES   REMARKS
DODGE CITY     CLEAR     54  45  71 NW9       29.91R                  
ELKHART        CLEAR     51  46  83 N15       30.00F                  
GARDEN CITY    CLEAR     51  46  83 NW14      29.96R                  
GREAT BEND     CLOUDY    57  52  83 NW13      29.85R                  
LIBERAL        PTCLDY    54  46  74 NW17      29.96R                  
PRATT          CLEAR     58  51  78 NW9       29.85R                  
$$

KSZ066>073-081>083-090>101-220900-
SOUTHEAST KANSAS
  
CITY           SKY/WX    TMP DP  RH WIND       PRES   REMARKS
CHANUTE        MOCLDY    69  52  54 S20       29.86F                  
COFFEYVILLE    CLEAR     69  53  56 S18G25    29.86F                  
HUTCHINSON     PTCLDY    64  58  80 S9        29.81S                  
MEDICINE LODGE   N/A     64  60  87 W12       29.82R                  
NEWTON         PTCLDY    63  56  78 S12       29.85F                  
PARSONS        CLEAR     67  53  61 S9G21     29.88F                  
WICHITA INTL   PTCLDY    61  54  77 S7        29.84F                  
WICHITA JABRA  PTCLDY    63  55  75 S6        29.84F                  
WICHITA MCCONL PTCLDY    62  55  75 SE7       29.84S                  
WINFIELD       CLEAR     66  55  67 SW9G24    29.87R                  
$$

KSZ007>012-019>026-033>040-048>060-102>105-220900-
NORTHEAST KANSAS
  
CITY           SKY/WX    TMP DP  RH WIND       PRES   REMARKS
CONCORDIA      MOCLDY    61  56  83 W8        29.80S                  
EMPORIA        CLOUDY    65  50  58 NE5       29.90F                  
LAWRENCE       CLOUDY    69  52  54 SW9       29.89R                  
MANHATTAN      CLOUDY    63  54  72 S9G21     29.79S                  
MARYSVILLE     LGT RAIN  61  55  82 SW10      29.78R                  
OLATHE IND     CLOUDY    68  52  56 SW12      29.94R                  
OLATHE EXE     CLOUDY    67  50  54 SW9       29.94R                  
SALINA         CLOUDY    61  57  87 W10       29.83R                  
TOPEKA BILLARD LGT RAIN  69  50  50 NW15G28   29.84F                  
TOPEKA FORBES  LGT RAIN  65  52  62 NW9       29.84F                  
$$